CZ-6A DEB

Satellite information

Favourite Embed

Satellite Type and Status

DEBRISIN ORBIT

Key statistics

Satellite CZ-6A DEB at a glance.

Uptime

909

Days in orbit

Revolutions

≈ 14.5

Per day

Orbit

SSO

Sun Synchronous Orbit

Inclination

98.6

Latest

Satellite identification and parameters

Extended collection of information and parameters for CZ-6A DEB.

Object identification

Identified? True

Debris? True

Object name: CZ-6A DEB

International designator: 2022-151AHA

Object number (NORAD): 56674

Object ID (CCSDS): 56674

Country: PEOPLES REPUBLIC OF CHINA (PRC)

Current information (Y/N): Y

RCS size: SMALL

Orbital parameters

Period: 99.145 minutes

Inclination: 98.5516 deg

SMA: 7095.901 km

Apoapsis: 815.314 km

Periapsis: 620.218 km

RAAN: 151.8883 deg

Eccentricy: 0.0137471

Argument of periapsis: 118.8115 deg

Mean anomaly: 242.6962 deg

Mean motion: 14.52417416 rev/day

Mean motion (dot): 0.00008005 rev/day2

B* drag term: 0.0017446 1/REarth

Two-line elements (TLE)

Creation date: May 8, 2025, 3:01 a.m.

Reference frame: TEME

Reference center: EARTH

Epoch: May 7, 2025, 12:17 a.m. UTC

TLE line 0: 0 CZ-6A DEB

TLE line 1: 1 56674U 22151AHA 25127.01184624 .00008005 00000-0 17446-2 0 9999

TLE line 2: 2 56674 98.5516 151.8883 0137471 118.8115 242.6962 14.52417416112534

Live tracking on map

Real-time ground track for satellite CZ-6A DEB.

In-orbit conjunctions

A list of the most updated potential collisions computed for object CZ-6A DEB.

Target Orbit TCA Probability of collision Miss distance Type
CZ-6A DEB SSO 2025-01-25 11:09:16 0.0003927689 80.0 (m) DEBRIS
THOR ABLESTAR DEB LEO 2024-11-16 03:00:05 0.0001019199 473.0 (m) DEBRIS
UWE-1 SSO 2024-06-13 22:04:38 0.0002448722 81.0 (m) PAYLOAD

Associated space launch

Chinese satellite reported for atmospheric/ocean/environmental/spatial parameter research purposes, details TBD.

CZ-6A DEB was lifted into orbit during the mission ‘Long March 6A | Yunhai 3’, on board a Long March 6A space rocket.

The launch took place on Nov. 11, 2022, 10:52 p.m. from Launch Complex 9A.

For more information about the launch, click the button.

Launch to space Long March 6A | Yunhai 3
Long March 6A | Yunhai 3

Agency: N/A

Status: Launch Successful

Launch date: Nov. 11, 2022, 10:52 p.m. UTC

Rocket: Long March 6A

Launch pad: Launch Complex 9A

Location: Taiyuan Satellite Launch Center, People's Republic of China

...

Latest news about this satellite

There are no fresh news available about this satellite. Check back as we update our databases every day.


Newsletter sign-up

Weekly statistics, charts and insights to help you stay on top of the space industry.